Horseshoe Bay, TX

10:11 AM MST on December 13, 2017 (GMT -0700)
Horseshoe Bay

Weather History for KDZB - September, 2013

Change the Weather History Date:

Friday, September 13, 2013

  Actual Average (KBMQ) Record (KBMQ)
Temperature  
Mean Temperature 82 °F -  
Max Temperature 96 °F 87 °F 102 °F (2011)
Min Temperature 69 °F 67 °F 57 °F (2014)
Cooling Degree Days 18    
Growing Degree Days 32 (Base 50)    
Moisture  
Dew Point 59 °F    
Average Humidity 48    
Maximum Humidity 82    
Minimum Humidity 23    
Precipitation  
Precipitation 0.00 in - - ()
Sea Level Pressure  
Sea Level Pressure 29.93 in    
Wind  
Wind Speed 3 mph (SSE)    
Max Wind Speed 12 mph    
Max Gust Speed 20 mph    
Visibility 10 miles    
Events      
Averages and records for this station are not official NWS values.
T = Trace of Precipitation, MM = Missing Value Source: NWS Daily Summary

Daily Weather History Graph

Daily Weather History Graph

Search for Another Location

Airport or City:

Trip Planner

Search our weather history database for the weather conditions in past years. The results will help you decide how hot, cold, wet, or windy it might be!

Date:

Astronomy

Sep. 13, 2013 Rise Set
Actual Time 6:16 AM MDT 6:41 PM MDT
Civil Twilight 5:52 AM MDT 7:05 PM MDT
Nautical Twilight 5:24 AM MDT 7:33 PM MDT
Astronomical Twilight 4:55 AM MDT 8:02 PM MDT
Moon 2:14 PM MDT 12:05 AM MDT
Length of Visible Light 13h 12m
Length of Day
12h 24m
Waxing Gibbous, 62% of the Moon is Illuminated
Sep 13
Waxing Gibbous
Sep 19
Full
Sep 26
Last Quarter
Oct 4
New
Oct 11
First Quarter

Hourly Weather History & Observations

Time (MDT) Temp. Heat Index Dew Point Humidity Pressure Visibility Wind Dir Wind Speed Gust Speed Precip Events Conditions
12:15 AM 77.2 °F - 62.2 °F 60% 29.98 in 10.0 mi Calm Calm - N/A   Scattered Clouds
12:35 AM 76.1 °F - 62.6 °F 63% 29.98 in 10.0 mi South 3.5 mph - N/A   Clear
12:55 AM 78.3 °F - 63.0 °F 59% 29.98 in 10.0 mi South 6.9 mph - N/A   Mostly Cloudy
1:15 AM 78.1 °F - 64.8 °F 63% 29.98 in 10.0 mi South 4.6 mph - N/A   Scattered Clouds
1:35 AM 77.9 °F - 65.3 °F 65% 29.98 in 10.0 mi South 5.8 mph - N/A   Scattered Clouds
1:55 AM 77.5 °F - 65.3 °F 66% 29.98 in 10.0 mi South 5.8 mph - N/A   Mostly Cloudy
2:15 AM 77.4 °F - 65.5 °F 67% 29.98 in 10.0 mi Calm Calm - N/A   Overcast
2:35 AM 76.6 °F - 65.3 °F 68% 29.98 in 10.0 mi Calm Calm - N/A   Overcast
2:55 AM 75.6 °F - 65.3 °F 70% 29.98 in 10.0 mi Calm Calm - N/A   Overcast
3:15 AM 75.2 °F - 65.3 °F 71% 29.98 in 10.0 mi Calm Calm - N/A   Mostly Cloudy
3:35 AM 73.4 °F - 64.8 °F 74% 29.98 in 10.0 mi Calm Calm - N/A   Scattered Clouds
3:55 AM 72.5 °F - 64.8 °F 77% 29.97 in 10.0 mi Calm Calm - N/A   Clear
4:15 AM 71.6 °F - 64.2 °F 77% 29.98 in 10.0 mi Calm Calm - N/A   Clear
4:35 AM 70.7 °F - 63.9 °F 79% 29.98 in 10.0 mi Calm Calm - N/A   Clear
4:55 AM 70.7 °F - 63.9 °F 79% 29.98 in 10.0 mi Calm Calm - N/A   Clear
5:15 AM 70.7 °F - 63.9 °F 79% 29.98 in 10.0 mi Calm Calm - N/A   Clear
5:35 AM 70.0 °F - 63.7 °F 80% 29.98 in 10.0 mi Calm Calm - N/A   Clear
5:55 AM 69.6 °F - 63.7 °F 81% 29.98 in 10.0 mi Calm Calm - N/A   Clear
6:15 AM 69.1 °F - 63.5 °F 82% 29.98 in 10.0 mi Calm Calm - N/A   Clear
6:35 AM 69.4 °F - 63.9 °F 82% 29.98 in 10.0 mi South 3.5 mph - N/A   Clear
6:55 AM 70.7 °F - 64.6 °F 81% 29.98 in 10.0 mi Calm Calm - N/A   Clear
7:15 AM 73.6 °F - 65.5 °F 76% 29.98 in 10.0 mi Calm Calm - N/A   Clear
7:35 AM 76.8 °F - 66.0 °F 69% 29.99 in 10.0 mi Calm Calm - N/A   Clear
7:55 AM 78.8 °F - 65.8 °F 64% 29.99 in 10.0 mi Calm Calm - N/A   Clear
8:15 AM 80.1 °F 82.1 °F 66.0 °F 62% 29.99 in 10.0 mi North 3.5 mph - N/A   Clear
8:35 AM 80.8 °F 82.9 °F 66.2 °F 61% 29.99 in 10.0 mi NNW 3.5 mph - N/A   Clear
8:55 AM 82.2 °F 84.6 °F 66.4 °F 59% 29.99 in 10.0 mi Calm Calm - N/A   Clear
9:15 AM 83.5 °F 85.3 °F 65.3 °F 54% 30.00 in 10.0 mi North 4.6 mph - N/A   Clear
9:35 AM 85.3 °F 86.6 °F 64.0 °F 49% 30.00 in 10.0 mi Calm Calm - N/A   Clear
9:55 AM 86.0 °F 86.8 °F 63.1 °F 46% 29.99 in 10.0 mi WNW 3.5 mph - N/A   Clear
10:15 AM 87.3 °F 86.5 °F 58.5 °F 38% 29.99 in 10.0 mi Calm Calm - N/A   Clear
10:35 AM 88.9 °F 87.7 °F 57.9 °F 35% 29.98 in 10.0 mi NW 3.5 mph - N/A   Clear
10:55 AM 88.2 °F 87.8 °F 60.6 °F 39% 29.98 in 10.0 mi North 4.6 mph - N/A   Clear
11:15 AM 89.8 °F 88.6 °F 58.3 °F 34% 29.97 in 10.0 mi ESE 3.5 mph - N/A   Scattered Clouds
11:35 AM 92.8 °F 91.4 °F 57.6 °F 30% 29.96 in 10.0 mi SE 5.8 mph - N/A   Scattered Clouds
11:55 AM 93.0 °F 91.7 °F 56.8 °F 30% 29.95 in 10.0 mi ESE 8.1 mph 16.1 mph N/A   Scattered Clouds
12:15 PM 92.8 °F 90.9 °F 55.4 °F 28% 29.95 in 10.0 mi ESE 5.8 mph - N/A   Clear
12:35 PM 94.6 °F 92.3 °F 54.0 °F 25% 29.94 in 10.0 mi SSE 11.5 mph 19.6 mph N/A   Scattered Clouds
12:55 PM 91.8 °F 89.8 °F 55.6 °F 29% 29.93 in 10.0 mi SE 6.9 mph - N/A   Mostly Cloudy
1:15 PM 92.1 °F 90.2 °F 55.6 °F 29% 29.92 in 10.0 mi East 3.5 mph - N/A   Scattered Clouds
1:35 PM 93.2 °F 91.0 °F 54.3 °F 27% 29.91 in 10.0 mi SE 10.4 mph 17.3 mph N/A   Mostly Cloudy
1:55 PM 96.6 °F 94.2 °F 53.2 °F 23% 29.90 in 10.0 mi SE 9.2 mph - N/A   Scattered Clouds
2:15 PM 94.5 °F 92.1 °F 53.6 °F 25% 29.88 in 10.0 mi ESE 8.1 mph - N/A   Clear
2:35 PM 95.4 °F 93.2 °F 53.8 °F 25% 29.87 in 10.0 mi East 6.9 mph - N/A   Scattered Clouds
2:55 PM 95.0 °F 92.7 °F 53.8 °F 25% 29.87 in 10.0 mi SE 3.5 mph - N/A   Clear
3:15 PM 92.8 °F 90.4 °F 53.6 °F 26% 29.86 in 10.0 mi Calm Calm - N/A   Clear
3:35 PM 92.8 °F - 52.9 °F 26% 29.85 in 10.0 mi SE 6.9 mph - N/A   Clear
3:55 PM 96.3 °F 94.4 °F 54.7 °F 25% 29.85 in 10.0 mi SE 5.8 mph - N/A   Clear
4:15 PM 95.9 °F 93.9 °F 54.5 °F 25% 29.85 in 10.0 mi SE 9.2 mph - N/A   Scattered Clouds
4:35 PM 94.8 °F 92.8 °F 54.7 °F 26% 29.84 in 10.0 mi SSE 4.6 mph - N/A   Scattered Clouds
4:55 PM 94.6 °F 92.6 °F 54.3 °F 26% 29.83 in 10.0 mi SE 4.6 mph - N/A   Clear
5:15 PM 94.3 °F 92.1 °F 54.5 °F 26% 29.83 in 10.0 mi SE 5.8 mph - N/A   Scattered Clouds
5:35 PM 93.2 °F 91.0 °F 54.3 °F 27% 29.84 in 10.0 mi SSE 10.4 mph - N/A   Scattered Clouds
5:55 PM 92.7 °F 90.4 °F 54.5 °F 27% 29.84 in 10.0 mi ESE 5.8 mph - N/A   Clear
6:15 PM 91.2 °F 89.1 °F 54.5 °F 29% 29.84 in 10.0 mi ESE 4.6 mph - N/A   Clear
6:35 PM 89.6 °F 87.5 °F 54.7 °F 30% 29.85 in 10.0 mi SE 3.5 mph - N/A   Clear
6:55 PM 87.1 °F 85.3 °F 54.9 °F 33% 29.85 in 10.0 mi Calm Calm - N/A   Clear
7:15 PM 84.4 °F 83.2 °F 55.2 °F 37% 29.85 in 10.0 mi Calm Calm - N/A   Clear
7:35 PM 82.9 °F 82.1 °F 55.6 °F 39% 29.86 in 10.0 mi Calm Calm - N/A   Clear
7:55 PM 81.7 °F 81.3 °F 55.9 °F 41% 29.86 in 10.0 mi SSE 3.5 mph - N/A   Clear
8:15 PM 81.1 °F 81.0 °F 56.3 °F 42% 29.87 in 10.0 mi SSE 3.5 mph - N/A   Clear
8:35 PM 81.1 °F 81.0 °F 56.3 °F 42% 29.88 in 10.0 mi SSE 4.6 mph - N/A   Clear
8:55 PM 80.8 °F 80.8 °F 56.5 °F 43% 29.88 in 10.0 mi SSE 3.5 mph - N/A   Clear
9:15 PM 80.2 °F 80.4 °F 56.7 °F 44% 29.89 in 10.0 mi South 3.5 mph - N/A   Clear
9:35 PM 79.7 °F - 57.0 °F 46% 29.89 in 10.0 mi South 3.5 mph - N/A   Clear
9:55 PM 79.7 °F - 57.0 °F 46% 29.90 in 10.0 mi South 3.5 mph - N/A   Clear
10:15 PM 79.3 °F - 57.2 °F 47% 29.90 in 10.0 mi South 3.5 mph - N/A   Scattered Clouds
10:35 PM 80.2 °F 80.4 °F 56.5 °F 44% 29.90 in 10.0 mi South 4.6 mph - N/A   Scattered Clouds
10:55 PM 80.6 °F 80.6 °F 56.3 °F 43% 29.90 in 10.0 mi South 6.9 mph - N/A   Clear
11:15 PM 80.6 °F 80.6 °F 56.5 °F 43% 29.90 in 10.0 mi South 8.1 mph - N/A   Clear
11:35 PM 80.1 °F 80.5 °F 57.4 °F 46% 29.90 in 10.0 mi South 5.8 mph - N/A   Clear
11:55 PM 79.7 °F - 58.1 °F 47% 29.90 in 10.0 mi South 6.9 mph - N/A   Clear